User: anonymous   Login
Location: Niedergestelen
(46.3129°N, 7.7822°E)
Time: 08:44:36
(UTC+00:00)
Language:

ARGOS - Orbit

View from above orbital plane
View from above orbital plane
View from above satellite
View from above satellite

Ground track
Ground track

The orbit data is extracted from the following two-line orbital elements,

1 25634U 99008A   21065.83995939 -.00000004  00000-0  17665-4 0  9999
2 25634  98.4317  98.5110 0009278 233.1415 126.8912 14.19389796140701
Epoch (UTC): 06 March 2021 20:09:32
Eccentricity: 0.0009278
inclination: 98.4317°
perigee height: 821 km
apogee height: 834 km
right ascension of ascending node: 98.5110°
argument of perigee: 233.1415°
revolutions per day: 14.19389796
mean anomaly at epoch: 126.8912°
orbit number at epoch: 14070

The dashed part of the orbit path shows where the satellite is in the earth's shadow,  

DLR